Location: *
(44.1392°N, 4.8079°E)
Time: 06:55:12
(UTC+00:00)

FALCON 9 DEB - Pass Details

Date: 21 June 2021
Orbit: 422 x 432 km, 53.0° (Epoch: 31 July)

Event Time Altitude Azimuth Distance (km) Brightness Sun altitude
Rises 02:23:04 0° 296° (WNW) 2,388 6.8 -13.1°
Reaches altitude 10° 02:25:23 10° 283° (WNW) 1,516 5.6 -12.8°
Maximum altitude 02:28:15 26° 225° (SW) 882 4.1 -12.5°
Drops below altitude 10° 02:31:07 10° 167° (SSE) 1,502 5.5 -12.2°
Sets 02:33:24 0° 154° (SSE) 2,361 6.6 -11.9°
